Zurück zum Katalog

ONEWEB-0139

AktivKommunikationPO
NORAD 47285·PAYLOAD·🇬🇧 United Kingdom

Gestartet Dec 18, 2020 von Vostochny Cosmodrome

Loading…

Nächste Überflüge (nächste 24 Stunden)

TLE

AktuellSource: CelesTrak SupGP

Epoche: Sep 14, 2026, 22:05 UTC

1 47285C 20100AD  26257.92062917 -.00000080  00000+0 -22172-3 0  2570
2 47285  87.8985 332.8396 0001856 100.3678   1.1956 13.12440714    12

Verfolge ONEWEB-0139 in Echtzeit mit AllMySat

Download on the App Store